| time (UTC) | temp F | wind direction | speed MPH | gust MPH | rain 1hr in | rain 24hr in | rain mn in | humidity % | barometer mb |
| 20260507223518 | 43 | 0.0 | 0.0 | 0.00 | 0.00 | 0.00 | 94 | 997.2 | |
| 20260507222519 | 44 | 0.0 | 0.0 | 0.00 | 0.00 | 0.00 | 94 | 997.2 | |
| 20260507221515 | 44 | 0.0 | 0.0 | 0.00 | 0.00 | 0.00 | 93 | 997.2 | |
| 20260507220516 | 44 | 0.0 | 0.0 | 0.00 | 0.00 | 0.00 | 93 | 997.2 | |
| 20260507215518 | 44 | 0.0 | 0.0 | 0.00 | 0.00 | 0.00 | 93 | 997.2 | |
| 20260507214519 | 45 | 0.0 | 0.0 | 0.00 | 0.00 | 0.00 | 92 | 997.2 | |
| 20260507213515 | 45 | 0.0 | 0.0 | 0.00 | 0.00 | 0.00 | 92 | 997.2 | |
| 20260507212516 | 45 | 0.0 | 0.0 | 0.00 | 0.00 | 0.00 | 92 | 997.2 | |
| 20260507211517 | 45 | 0.0 | 0.0 | 0.00 | 0.00 | 0.00 | 91 | 997.2 | |
| 20260507210519 | 46 | 0.0 | 0.0 | 0.00 | 0.00 | 0.00 | 91 | 997.2 | |
| 20260507205515 | 46 | 0.0 | 0.0 | 0.00 | 0.00 | 0.00 | 91 | 997.2 | |
| 20260507204517 | 47 | 0.0 | 0.0 | 0.00 | 0.00 | 0.00 | 90 | 997.2 | |
| 20260507203518 | 47 | 0.0 | 0.0 | 0.00 | 0.00 | 0.00 | 89 | 997.2 | |
| 20260507202519 | 47 | 0.0 | 0.0 | 0.00 | 0.00 | 0.00 | 88 | 997.1 | |
| 20260507201515 | 48 | 0.0 | 0.0 | 0.00 | 0.00 | 0.00 | 88 | 997.0 | |
| 20260507200516 | 49 | 0.0 | 0.0 | 0.00 | 0.00 | 0.00 | 87 | 997.0 | |
| 20260507195517 | 49 | 0.0 | 0.0 | 0.00 | 0.00 | 0.00 | 85 | 996.9 | |
| 20260507194539 | 50 | 0.0 | 0.0 | 0.00 | 0.00 | 0.00 | 84 | 996.8 | |
| 20260507193520 | 51 | 0.0 | 0.0 | 0.00 | 0.00 | 0.00 | 82 | 996.7 | |
| 20260507192515 | 52 | 0.0 | 0.0 | 0.00 | 0.00 | 0.00 | 80 | 996.6 | |
| 20260507191517 | 53 | 0.0 | 0.0 | 0.00 | 0.00 | 0.00 | 78 | 996.5 | |
| 20260507190558 | 55 | 0.0 | 0.0 | 0.00 | 0.00 | 0.00 | 75 | 996.4 | |
| 20260507185519 | 56 | 0.0 | 0.0 | 0.00 | 0.00 | 0.00 | 72 | 996.3 | |
| 20260507184516 | 57 | 0.0 | 0.0 | 0.00 | 0.00 | 0.00 | 69 | 996.1 | |
| 20260507183537 | 58 | 37 | 0.0 | 1.0 | 0.00 | 0.00 | 0.00 | 63 | 996.1 |
| 20260507182518 | 59 | 24 | 2.0 | 5.0 | 0.00 | 0.00 | 0.00 | 61 | 996.1 |
| 20260507181519 | 59 | 28 | 3.0 | 6.0 | 0.00 | 0.00 | 0.00 | 58 | 996.0 |
| 20260507180515 | 60 | 33 | 3.0 | 5.0 | 0.00 | 0.00 | 0.00 | 58 | 995.9 |
| 20260507175516 | 60 | 37 | 3.0 | 5.0 | 0.00 | 0.00 | 0.00 | 57 | 996.0 |
| 20260507174537 | 60 | 23 | 2.0 | 5.0 | 0.00 | 0.00 | 0.00 | 56 | 995.9 |
| 20260507173518 | 61 | 30 | 3.0 | 7.0 | 0.00 | 0.00 | 0.00 | 53 | 995.9 |
| 20260507172519 | 62 | 48 | 1.0 | 4.0 | 0.00 | 0.00 | 0.00 | 52 | 995.9 |
| 20260507171516 | 62 | 41 | 2.0 | 6.0 | 0.00 | 0.00 | 0.00 | 52 | 995.9 |
| 20260507170557 | 62 | 211 | 1.0 | 5.0 | 0.00 | 0.00 | 0.00 | 54 | 996.0 |
| 20260507165518 | 61 | 50 | 1.0 | 4.0 | 0.00 | 0.00 | 0.00 | 54 | 996.0 |
| 20260507164519 | 61 | 52 | 3.0 | 6.0 | 0.00 | 0.00 | 0.00 | 53 | 996.1 |
| 20260507163520 | 62 | 47 | 2.0 | 5.0 | 0.00 | 0.00 | 0.00 | 53 | 996.1 |
| 20260507162537 | 61 | 51 | 2.0 | 5.0 | 0.00 | 0.00 | 0.00 | 53 | 996.1 |
| 20260507161517 | 61 | 44 | 3.0 | 6.0 | 0.00 | 0.00 | 0.00 | 54 | 996.1 |
| 20260507160518 | 63 | 34 | 2.0 | 6.0 | 0.00 | 0.00 | 0.00 | 52 | 996.1 |
| 20260507155520 | 64 | 274 | 2.0 | 5.0 | 0.00 | 0.00 | 0.00 | 51 | 996.2 |
| 20260507154516 | 64 | 251 | 0.0 | 1.0 | 0.00 | 0.00 | 0.00 | 51 | 996.2 |
| 20260507153517 | 64 | 221 | 1.0 | 6.0 | 0.00 | 0.00 | 0.00 | 50 | 996.1 |
| 20260507152518 | 65 | 172 | 2.0 | 4.0 | 0.00 | 0.00 | 0.00 | 52 | 996.1 |
| 20260507151539 | 64 | 179 | 2.0 | 5.0 | 0.00 | 0.00 | 0.00 | 53 | 996.3 |
| 20260507150520 | 64 | 225 | 2.0 | 5.0 | 0.00 | 0.00 | 0.00 | 51 | 996.3 |
| 20260507145516 | 64 | 205 | 2.0 | 4.0 | 0.00 | 0.00 | 0.00 | 53 | 996.3 |
| 20260507144557 | 63 | 186 | 2.0 | 5.0 | 0.00 | 0.00 | 0.00 | 53 | 996.3 |
| 20260507143519 | 62 | 217 | 1.0 | 3.0 | 0.00 | 0.00 | 0.00 | 54 | 996.5 |
| 20260507142520 | 61 | 276 | 1.0 | 3.0 | 0.00 | 0.00 | 0.00 | 55 | 996.6 |
| 20260507141516 | 62 | 245 | 1.0 | 4.0 | 0.00 | 0.00 | 0.00 | 54 | 996.6 |
| 20260507140517 | 62 | 312 | 0.0 | 2.0 | 0.00 | 0.00 | 0.00 | 55 | 996.8 |
| 20260507135519 | 61 | 74 | 1.0 | 2.0 | 0.00 | 0.00 | 0.00 | 54 | 996.9 |
| 20260507134520 | 61 | 30 | 3.0 | 6.0 | 0.00 | 0.00 | 0.00 | 54 | 996.9 |
| 20260507133515 | 63 | 40 | 4.0 | 7.0 | 0.00 | 0.00 | 0.00 | 52 | 996.9 |
| 20260507132517 | 63 | 330 | 2.0 | 5.0 | 0.00 | 0.00 | 0.00 | 54 | 996.8 |
| 20260507131538 | 62 | 202 | 3.0 | 5.0 | 0.00 | 0.00 | 0.00 | 54 | 996.9 |
| 20260507130519 | 61 | 191 | 3.0 | 5.0 | 0.00 | 0.00 | 0.00 | 54 | 997.0 |
| 20260507125520 | 62 | 246 | 2.0 | 6.0 | 0.00 | 0.00 | 0.00 | 56 | 996.9 |
| 20260507124516 | 61 | 167 | 1.0 | 3.0 | 0.00 | 0.00 | 0.00 | 56 | 997.0 |
| 20260507123538 | 60 | 48 | 1.0 | 3.0 | 0.00 | 0.00 | 0.00 | 56 | 997.0 |
| 20260507122519 | 59 | 28 | 1.0 | 5.0 | 0.00 | 0.00 | 0.00 | 56 | 997.0 |
| 20260507121520 | 59 | 50 | 1.0 | 3.0 | 0.00 | 0.00 | 0.00 | 59 | 997.0 |
| 20260507120516 | 60 | 20 | 4.0 | 7.0 | 0.00 | 0.00 | 0.00 | 57 | 997.0 |
| 20260507115517 | 61 | 21 | 5.0 | 9.0 | 0.00 | 0.00 | 0.00 | 58 | 996.9 |
| 20260507114518 | 60 | 346 | 1.0 | 5.0 | 0.00 | 0.00 | 0.00 | 55 | 997.0 |
| 20260507113519 | 60 | 45 | 2.0 | 5.0 | 0.00 | 0.00 | 0.00 | 54 | 997.0 |
| 20260507112516 | 60 | 47 | 3.0 | 9.0 | 0.00 | 0.00 | 0.00 | 56 | 997.0 |
| 20260507111516 | 59 | 73 | 3.0 | 7.0 | 0.00 | 0.00 | 0.00 | 58 | 997.1 |
| 20260507110518 | 59 | 33 | 6.0 | 10.0 | 0.00 | 0.00 | 0.00 | 59 | 997.1 |
| 20260507105539 | 58 | 42 | 1.0 | 3.0 | 0.00 | 0.00 | 0.00 | 62 | 997.2 |
| 20260507104520 | 59 | 40 | 2.0 | 7.0 | 0.00 | 0.00 | 0.00 | 63 | 997.2 |
| 20260507103521 | 59 | 192 | 1.0 | 3.0 | 0.00 | 0.00 | 0.00 | 66 | 997.2 |
| 20260507102517 | 59 | 355 | 3.0 | 5.0 | 0.00 | 0.00 | 0.00 | 66 | 997.2 |
| 20260507101518 | 58 | 28 | 3.0 | 7.0 | 0.00 | 0.00 | 0.00 | 67 | 997.2 |
| 20260507100519 | 57 | 58 | 3.0 | 6.0 | 0.00 | 0.00 | 0.00 | 66 | 997.3 |
| 20260507095520 | 57 | 30 | 4.0 | 8.0 | 0.00 | 0.00 | 0.00 | 67 | 997.3 |
| 20260507094516 | 56 | 74 | 2.0 | 7.0 | 0.00 | 0.00 | 0.00 | 68 | 997.3 |
| 20260507093517 | 57 | 53 | 4.0 | 9.0 | 0.00 | 0.00 | 0.00 | 69 | 997.3 |
| 20260507092518 | 57 | 32 | 5.0 | 10.0 | 0.00 | 0.00 | 0.00 | 70 | 997.2 |
| 20260507091539 | 57 | 11 | 3.0 | 6.0 | 0.00 | 0.00 | 0.00 | 72 | 997.2 |
| 20260507090520 | 56 | 55 | 3.0 | 6.0 | 0.00 | 0.00 | 0.00 | 73 | 997.2 |
| 20260507085516 | 56 | 45 | 2.0 | 7.0 | 0.00 | 0.00 | 0.00 | 74 | 997.1 |
| 20260507084517 | 55 | 47 | 2.0 | 4.0 | 0.00 | 0.00 | 0.00 | 74 | 997.1 |
| 20260507083518 | 55 | 255 | 2.0 | 5.0 | 0.00 | 0.00 | 0.00 | 75 | 997.1 |
| 20260507082519 | 54 | 45 | 2.0 | 5.0 | 0.00 | 0.00 | 0.00 | 77 | 997.1 |
| 20260507081520 | 54 | 70 | 1.0 | 4.0 | 0.00 | 0.00 | 0.00 | 79 | 997.1 |
| 20260507080517 | 54 | 327 | 1.0 | 3.0 | 0.00 | 0.01 | 0.00 | 83 | 997.0 |
| 20260507075518 | 53 | 0.0 | 0.0 | 0.00 | 0.01 | 0.00 | 84 | 997.1 | |
| 20260507074519 | 52 | 0.0 | 0.0 | 0.00 | 0.01 | 0.00 | 85 | 997.0 | |
| 20260507073520 | 52 | 29 | 1.0 | 4.0 | 0.00 | 0.01 | 0.00 | 87 | 997.0 |
| 20260507072517 | 51 | 31 | 1.0 | 3.0 | 0.00 | 0.01 | 0.00 | 89 | 996.9 |
| 20260507071518 | 50 | 45 | 0.0 | 3.0 | 0.00 | 0.01 | 0.00 | 89 | 996.9 |
| 20260507070519 | 50 | 20 | 0.0 | 2.0 | 0.00 | 0.01 | 0.00 | 91 | 996.8 |
| 20260507065540 | 49 | 5 | 0.0 | 3.0 | 0.00 | 0.01 | 0.00 | 93 | 996.8 |
| 20260507064516 | 49 | 0.0 | 0.0 | 0.00 | 0.01 | 0.00 | 94 | 996.8 | |
| 20260507063517 | 49 | 0.0 | 0.0 | 0.00 | 0.01 | 0.00 | 94 | 996.7 | |
| 20260507062519 | 48 | 35 | 0.0 | 2.0 | 0.00 | 0.01 | 0.00 | 95 | 996.6 |
| 20260507061520 | 48 | 0.0 | 0.0 | 0.00 | 0.01 | 0.00 | 95 | 996.6 | |
| 20260507060516 | 48 | 53 | 1.0 | 3.0 | 0.00 | 0.01 | 0.00 | 96 | 996.6 |
| 20260507055517 | 47 | 49 | 1.0 | 3.0 | 0.00 | 0.01 | 0.00 | 96 | 996.5 |
| 20260507054518 | 47 | 10 | 0.0 | 2.0 | 0.00 | 0.01 | 0.00 | 96 | 996.4 |
| 20260507053519 | 47 | 12 | 0.0 | 2.0 | 0.00 | 0.01 | 0.00 | 96 | 996.3 |
| 20260507052516 | 47 | 59 | 1.0 | 2.0 | 0.00 | 0.01 | 0.00 | 97 | 996.3 |
| 20260507051517 | 46 | 56 | 0.0 | 1.0 | 0.00 | 0.01 | 0.00 | 97 | 996.3 |
| 20260507050518 | 46 | 49 | 0.0 | 2.0 | 0.00 | 0.01 | 0.00 | 97 | 996.2 |
| 20260507045619 | 46 | 0.0 | 0.0 | 0.00 | 0.01 | 0.00 | 96 | 996.2 | |
| 20260507044521 | 45 | 0.0 | 0.0 | 0.00 | 0.02 | 0.00 | 96 | 996.1 | |
| 20260507043516 | 45 | 0.0 | 0.0 | 0.00 | 0.02 | 0.00 | 96 | 996.0 | |
| 20260507042517 | 45 | 0.0 | 0.0 | 0.00 | 0.02 | 0.00 | 96 | 995.9 | |
| 20260507041519 | 45 | 0.0 | 0.0 | 0.00 | 0.02 | 0.00 | 96 | 995.8 | |
| 20260507040540 | 45 | 0.0 | 0.0 | 0.00 | 0.03 | 0.00 | 96 | 995.8 | |
| 20260507035516 | 45 | 0.0 | 0.0 | 0.00 | 0.03 | 0.00 | 96 | 995.8 | |
| 20260507034537 | 45 | 0.0 | 0.0 | 0.00 | 0.03 | 0.00 | 95 | 995.8 | |
| 20260507033539 | 46 | 0.0 | 0.0 | 0.00 | 0.03 | 0.00 | 95 | 995.7 | |
| 20260507032520 | 46 | 0.0 | 0.0 | 0.00 | 0.04 | 0.00 | 95 | 995.7 | |
| 20260507031516 | 46 | 0.0 | 0.0 | 0.00 | 0.05 | 0.00 | 95 | 995.7 | |
| 20260507030537 | 46 | 0.0 | 0.0 | 0.00 | 0.06 | 0.00 | 95 | 995.8 | |
| 20260507025518 | 46 | 0.0 | 0.0 | 0.00 | 0.06 | 0.00 | 95 | 995.8 | |
| 20260507024559 | 46 | 0.0 | 0.0 | 0.00 | 0.07 | 0.00 | 95 | 995.8 | |
| 20260507023515 | 46 | 0.0 | 0.0 | 0.00 | 0.08 | 0.00 | 95 | 995.8 | |
| 20260507022517 | 46 | 240 | 0.0 | 1.0 | 0.00 | 0.08 | 0.00 | 96 | 995.7 |
| 20260507021518 | 46 | 0.0 | 0.0 | 0.00 | 0.09 | 0.00 | 96 | 995.6 | |
| 20260507020519 | 46 | 251 | 0.0 | 2.0 | 0.00 | 0.09 | 0.00 | 96 | 995.6 |
| 20260507015520 | 46 | 0.0 | 0.0 | 0.00 | 0.09 | 0.00 | 96 | 995.5 | |
| 20260507014526 | 46 | 0.0 | 0.0 | 0.00 | 0.09 | 0.00 | 96 | 995.5 | |
| 20260507013522 | 45 | 0.0 | 0.0 | 0.00 | 0.10 | 0.00 | 96 | 995.4 | |
| 20260507012523 | 45 | 0.0 | 1.0 | 0.00 | 0.10 | 0.00 | 96 | 995.5 | |
| 20260507011525 | 45 | 211 | 0.0 | 1.0 | 0.00 | 0.10 | 0.00 | 96 | 995.5 |
| 20260507010526 | 45 | 208 | 1.0 | 2.0 | 0.00 | 0.11 | 0.00 | 96 | 995.5 |
| 20260507005522 | 45 | 0.0 | 0.0 | 0.00 | 0.11 | 0.00 | 96 | 995.4 | |
| 20260507004523 | 45 | 0.0 | 0.0 | 0.00 | 0.12 | 0.00 | 96 | 995.4 | |
| 20260507003525 | 45 | 0.0 | 0.0 | 0.00 | 0.13 | 0.00 | 96 | 995.4 | |
| 20260507002526 | 45 | 0.0 | 0.0 | 0.00 | 0.15 | 0.00 | 97 | 995.4 | |
| 20260507001542 | 45 | 0.0 | 0.0 | 0.00 | 0.16 | 0.00 | 97 | 995.4 | |
| 20260507000523 | 44 | 0.0 | 0.0 | 0.00 | 0.16 | 0.00 | 97 | 995.4 | |
| 20260506235524 | 44 | 0.0 | 0.0 | 0.00 | 0.17 | 0.00 | 96 | 995.4 | |
| 20260506234526 | 43 | 0.0 | 0.0 | 0.00 | 0.17 | 0.00 | 97 | 995.5 | |
| 20260506233522 | 42 | 0.0 | 0.0 | 0.00 | 0.17 | 0.00 | 96 | 995.5 | |
| 20260506232523 | 42 | 0.0 | 0.0 | 0.00 | 0.17 | 0.00 | 96 | 995.4 | |
| 20260506231524 | 42 | 0.0 | 0.0 | 0.00 | 0.17 | 0.00 | 95 | 995.4 | |
| 20260506230526 | 42 | 0.0 | 0.0 | 0.00 | 0.18 | 0.00 | 95 | 995.4 | |
| 20260506225602 | 42 | 0.0 | 0.0 | 0.00 | 0.18 | 0.00 | 95 | 995.4 | |
| 20260506224518 | 42 | 0.0 | 0.0 | 0.00 | 0.18 | 0.00 | 95 | 995.4 |